Weather History for Sydney, NW

Change the Weather History Date:

Friday, January 18, 2013

  Actual Average Record
Temperature  
Mean Temperature 92 °F -  
Max Temperature 114 °F 80 °F 114 °F (2013)
Min Temperature 69 °F 66 °F 59 °F (2009)
Cooling Degree Days 26    
Growing Degree Days 42 (Base 50)    
Moisture  
Dew Point 63 °F    
Average Humidity 53    
Maximum Humidity 88    
Minimum Humidity 6    
Precipitation  
Precipitation 0.04 in 0.15 in - ()
Sea Level Pressure  
Sea Level Pressure 29.58 in    
Wind  
Wind Speed 11 mph ()    
Max Wind Speed 40 mph    
Max Gust Speed 53 mph    
Visibility 7.5 miles    
Events Rain , Thunderstorm    
Averages and records for this station are not official NWS values.
T = Trace of Precipitation, MM = Missing Value Source: Averaged Metar Reports

Daily Weather History Graph

Daily Weather History Graph

Search for Another Location

Airport:

Trip Planner

Search our weather history database for the weather conditions in past years. The results will help you decide how hot, cold, wet, or windy it might be!

Date:

Astronomy

Jan. 18, 2013 Rise Set
Actual Time 6:02 AM EST 8:08 PM EST
Civil Twilight 5:34 AM EST 8:36 PM EST
Nautical Twilight 5:00 AM EST 9:10 PM EST
Astronomical Twilight 4:23 AM EST 9:47 PM EST
Moon 12:32 PM EST (1/18) 11:54 PM EST (1/18)
Length of Visible Light 15h 02m
Length of Day
14h 05m
Waxing Crescent, 41% of the Moon is Illuminated
Jan 18
Waxing Crescent
Jan 19
First Quarter
Jan 27
Full
Feb 4
Last Quarter
Feb 10
New

Hourly Weather History & Observations

Time (EST) Temp. Heat Index Dew Point Humidity Pressure Visibility Wind Dir Wind Speed Gust Speed Precip Events Conditions
12:00 AM 74 °F - 69 °F 79% 29.73 in 16 mi NE 5.8 mph - -   Partly Cloudy
12:00 AM 75.2 °F - 69.8 °F 83% 29.71 in - NE 5.8 mph - N/A   Clear
12:30 AM 73.4 °F - 69.8 °F 88% 29.71 in - NE 5.8 mph - N/A   Clear
1:00 AM 73.4 °F - 69.8 °F 88% 29.68 in - ENE 3.5 mph - N/A   Clear
1:30 AM 75.2 °F - 69.8 °F 83% 29.68 in - NE 4.6 mph - N/A   Clear
2:00 AM 73 °F - 69 °F 83% 29.68 in - NE 4.6 mph - -  
2:00 AM 73.4 °F - 69.8 °F 88% 29.65 in - NE 4.6 mph - N/A   Clear
2:30 AM 73.4 °F - 69.8 °F 88% 29.65 in - NE 1.2 mph - N/A   Clear
3:00 AM 73 °F - 69 °F 83% 29.65 in 16 mi NE 5.8 mph - -   Partly Cloudy
3:00 AM 73.4 °F - 69.8 °F 88% 29.62 in - NE 5.8 mph - N/A   Clear
3:30 AM 75.2 °F - 69.8 °F 83% 29.62 in - NNE 4.6 mph - N/A   Clear
4:00 AM 73.4 °F - 68.0 °F 83% 29.62 in - NNW 5.8 mph - N/A   Clear
4:30 AM 73.4 °F - 69.8 °F 88% 29.62 in - NNW 8.1 mph - N/A   Clear
5:00 AM 74 °F - 69 °F 78% 29.64 in - North 8.1 mph - -  
5:00 AM 75.2 °F - 68.0 °F 78% 29.62 in - North 8.1 mph - N/A   Clear
5:30 AM 75.2 °F - 68.0 °F 78% 29.62 in - NNW 6.9 mph - N/A   Clear
6:00 AM 74 °F - 68 °F 76% 29.63 in 11 mi NW 5.8 mph - -   Haze
6:00 AM 75.2 °F - 68.0 °F 78% 29.62 in - NW 5.8 mph - N/A   Clear
6:30 AM 75.2 °F - 68.0 °F 78% 29.62 in - NW 8.1 mph - N/A   Clear
7:00 AM 75.2 °F - 68.0 °F 78% 29.62 in - NW 6.9 mph - N/A   Clear
7:30 AM 78.8 °F - 68.0 °F 69% 29.62 in - NNW 6.9 mph - N/A   Clear
8:00 AM 80 °F - 67 °F 56% 29.63 in - NW 8.1 mph - -  
8:00 AM 80.6 °F 83.2 °F 68.0 °F 65% 29.62 in - NW 8.1 mph - N/A   Clear
8:30 AM 84.2 °F 87.3 °F 68.0 °F 58% 29.62 in - NW 8.1 mph - N/A   Clear
9:00 AM 85 °F - 67 °F 46% 29.61 in 12 mi North 9.2 mph - -   Haze
9:00 AM 84.2 °F 87.3 °F 68.0 °F 58% 29.59 in - North 9.2 mph - N/A   Clear
9:30 AM 86.0 °F 88.2 °F 66.2 °F 51% 29.59 in - NNW 10.4 mph - N/A   Clear
10:00 AM 91.4 °F 94.0 °F 66.2 °F 43% 29.56 in - NW 10.4 mph - N/A   Clear
10:30 AM 95.0 °F 98.5 °F 66.2 °F 39% 29.56 in - NW 10.4 mph - N/A   Clear
11:00 AM 100 °F - 63 °F 21% 29.56 in - NW 9.2 mph - -  
11:00 AM 100.4 °F 102.4 °F 62.6 °F 29% 29.53 in - NW 9.2 mph - N/A   Clear
11:30 AM 105.8 °F 105.5 °F 57.2 °F 20% 29.53 in - NW 13.8 mph - N/A   Clear
12:00 PM 107 °F - 56 °F 11% 29.53 in 12 mi NW 16.1 mph - -   Haze
12:00 PM 107.6 °F 106.8 °F 55.4 °F 18% 29.50 in - NW 16.1 mph - N/A   Clear
12:49 PM 111.2 °F 109.6 °F 53.6 °F 15% 29.50 in - NW 17.3 mph 28.8 mph N/A   Clear
1:00 PM 111.2 °F 109.6 °F 53.6 °F 15% 29.47 in - WNW 17.3 mph - N/A   Clear
1:30 PM 113.0 °F - 51.8 °F 13% 29.47 in - West 13.8 mph - N/A   Clear
2:00 PM 114 °F - 48 °F 6% 29.48 in - WNW 12.7 mph - -  
2:00 PM 114.8 °F - 48.2 °F 11% 29.47 in - WNW 12.7 mph - N/A   Clear
2:18 PM 113.0 °F - 50.0 °F 13% 29.44 in - NW 18.4 mph - N/A   Clear
2:30 PM 114.8 °F - 48.2 °F 11% 29.44 in - NW 16.1 mph - N/A   Clear
3:00 PM 113 °F - 49 °F 7% 29.46 in 12 mi West 10.4 mph - -   Haze
3:00 PM 113.0 °F - 50.0 °F 13% 29.44 in - West 10.4 mph - N/A   Clear
3:30 PM 111.2 °F - 48.2 °F 12% 29.44 in 6.2 mi NW 10.4 mph - N/A   Scattered Clouds
3:57 PM 102.2 °F 104.2 °F 62.6 °F 27% 29.44 in - East 16.1 mph - N/A   Clear
4:00 PM 102.2 °F 104.2 °F 62.6 °F 27% 29.44 in - East 16.1 mph - N/A   Clear
4:30 PM 98.6 °F 100.0 °F 62.6 °F 30% 29.42 in 6.2 mi East 15.0 mph - N/A   Unknown
5:00 PM 102 °F - 58 °F 15% 29.44 in - East 13.8 mph - -  
5:00 PM 102.2 °F 101.4 °F 57.2 °F 22% 29.42 in 6.2 mi East 13.8 mph - N/A Thunderstorm Partly Cloudy
5:30 PM 100.4 °F 103.6 °F 64.4 °F 31% 29.44 in 6.2 mi South 6.9 mph - N/A Rain Light Rain Showers
6:00 PM 99 °F - 61 °F 19% 29.46 in 12 mi East 13.8 mph - -   Partly Cloudy
6:00 PM 98.6 °F 99.4 °F 60.8 °F 29% 29.44 in 6.2 mi East 13.8 mph - N/A   Partly Cloudy
6:30 PM 95.0 °F 96.0 °F 62.6 °F 34% 29.47 in 6.2 mi ENE 16.1 mph - N/A   Partly Cloudy
7:00 PM 96.8 °F 97.1 °F 60.8 °F 30% 29.50 in 6.2 mi ENE 12.7 mph - N/A   Unknown
7:34 PM 89.6 °F 91.1 °F 64.4 °F 43% 29.56 in 6.2 mi South 23.0 mph 38.0 mph N/A   Unknown
7:36 PM 80.6 °F 81.8 °F 62.6 °F 54% 29.56 in 6.2 mi SW 38.0 mph - N/A   Unknown
8:00 PM 76 °F - 64 °F 58% 29.61 in - South 40.3 mph - -  
8:00 PM 77.0 °F - 64.4 °F 65% 29.59 in - South 40.3 mph 52.9 mph N/A   Clear
8:30 PM 75.2 °F - 64.4 °F 69% 29.62 in 3.7 mi South 40.3 mph 51.8 mph N/A   Unknown
9:00 PM 74 °F - 65 °F 65% 29.66 in 5 mi South 39.1 mph - -   Mostly Cloudy
9:00 PM 73.4 °F - 64.4 °F 73% 29.65 in 5.0 mi South 39.1 mph 50.6 mph N/A   Unknown
9:30 PM 73.4 °F - 66.2 °F 78% 29.68 in 5.0 mi South 38.0 mph - N/A   Unknown
9:33 PM 73.4 °F - 66.2 °F 78% 29.68 in 5.0 mi South 35.7 mph 47.2 mph N/A   Unknown
10:00 PM 73.4 °F - 66.2 °F 78% 29.68 in 5.0 mi South 32.2 mph 46.0 mph N/A   Unknown
10:30 PM 73.4 °F - 64.4 °F 73% 29.74 in 5.0 mi South 31.1 mph - N/A   Unknown
11:00 PM 73 °F - 65 °F 69% 29.75 in - South 25.3 mph - -  
11:00 PM 73.4 °F - 64.4 °F 73% 29.74 in 5.0 mi South 25.3 mph - N/A   Unknown
11:12 PM 69.8 °F - 66.2 °F 88% 29.74 in 3.1 mi South 26.5 mph - N/A Rain Rain Showers
11:30 PM 71.6 °F - 66.2 °F 83% 29.77 in 5.6 mi South 24.2 mph - N/A   Mostly Cloudy